This demonstration page uses our WeatherBlox Daily Observations layout. Learn more.

Left ArrowRight Arrow

39.95233, -75.16379

Hourly Observations for January 26, 2022

Temp ( °F °C ) Dew Point ( °F °C ) Humidity (%) Winds ( mph kmh ) Pressure ( in mb ) Visibility ( mi km ) Precip ( " mm )
12:54 am 00:54 Partly Cloudy 29 -1.7 10 -12.2 45 45 NNW 15 24 30.21 1023 10 16 0.00 0.00
1:54 am 01:54 Partly Cloudy 28 -2.2 10 -12.2 47 47 NW 14 22 30.23 1024 10 16 0.00 0.00
2:54 am 02:54 Mostly Clear 26 -3.3 8 -13.3 46 46 NW 14 22 30.25 1025 10 16 0.00 0.00
3:54 am 03:54 Clear 25 -3.9 6 -14.4 44 44 NW 12 19 30.27 1025 10 16 0.00 0.00
4:54 am 04:54 Mostly Clear 24 -4.4 6 -14.4 46 46 NNW 13 20 30.29 1026 10 16 0.00 0.00
5:54 am 05:54 Clear 23 -5 5 -15 46 46 NNW 9 15 30.30 1026 10 16 0.00 0.00
6:54 am 06:54 Clear 22 -5.6 4 -15.6 46 46 NNW 9 15 30.33 1027 10 16 0.00 0.00
7:54 am 07:54 Mostly Sunny 23 -5 4 -15.6 44 44 NNW 8 13 30.36 1028 10 16 0.00 0.00
8:54 am 08:54 Mostly Sunny 25 -3.9 4 -15.6 40 40 NNW 14 22 30.39 1029 10 16 0.00 0.00
9:54 am 09:54 Mostly Sunny 27 -2.8 5 -15 39 39 N 10 17 30.39 1029 10 16 0.00 0.00
10:54 am 10:54 Mostly Sunny 28 -2.2 4 -15.6 35 35 N 8 13 30.40 1029 10 16 0.00 0.00
11:54 am 11:54 Mostly Sunny 29 -1.7 4 -15.6 34 34 NNW 12 19 30.38 1029 10 16 0.00 0.00
12:54 pm 12:54 Mostly Sunny 30 -1.1 3 -16.1 31 31 NNW 13 20 30.36 1028 10 16 0.00 0.00
1:54 pm 13:54 Mostly Sunny 30 -1.1 2 -16.7 30 30 VRB 5 7 30.35 1028 10 16 0.00 0.00
2:54 pm 14:54 Mostly Sunny 31 -0.6 2 -16.7 29 29 NW 10 17 30.35 1028 10 16 0.00 0.00
3:54 pm 15:54 Mostly Sunny 31 -0.6 3 -16.1 30 30 NW 13 20 30.36 1028 10 16 0.00 0.00
4:54 pm 16:54 Mostly Sunny 30 -1.1 4 -15.6 33 33 NW 13 20 30.38 1029 10 16 0.00 0.00
5:54 pm 17:54 Mostly Clear 28 -2.2 4 -15.6 35 35 N 10 17 30.41 1030 10 16 0.00 0.00
6:54 pm 18:54 Clear 27 -2.8 3 -16.1 35 35 NNW 8 13 30.44 1031 10 16 0.00 0.00
7:54 pm 19:54 Clear 25 -3.9 4 -15.6 40 40 NNW 7 11 30.46 1032 10 16 0.00 0.00
8:54 pm 20:54 Clear 26 -3.3 4 -15.6 38 38 NNW 6 9 30.47 1032 10 16 0.00 0.00
9:54 pm 21:54 Clear 23 -5 5 -15 46 46 NW 5 7 30.48 1032 10 16 0.00 0.00
10:54 pm 22:54 Clear 24 -4.4 5 -15 44 44 NNW 3 6 30.48 1032 10 16 0.00 0.00
11:54 pm 23:54 Clear 24 -4.4 6 -14.4 46 46 Calm 30.48 1032 10 16 0.00 0.00

Powered by AerisWeather